,,,PA_Meas_PMT16A,,PR_Meas_QMR101_102,,RH_Meas_QMH101,,SR_Meas_QMS101,,TA_Meas_QMH101,,GenWind,,GenWind,
date,time,status,PA,status,PR,status,RH,status,SR,status,TA,status,DirAvg,status,SpdAvg,
2009-02-27, 00:00:04,VALID,1008.5,VALID,0,VALID,91.5777,VALID,0,VALID,23.694,VALID,54,VALID,0,
2009-02-27, 00:01:04,VALID,1008.52,VALID,0,VALID,91.5929,VALID,0,VALID,23.6532,VALID,18,VALID,0,
2009-02-27, 00:02:04,VALID,1008.52,VALID,0,VALID,91.6463,VALID,0,VALID,23.6745,VALID,18,VALID,0,
2009-02-27, 00:03:04,VALID,1008.52,VALID,0,VALID,91.6768,VALID,0,VALID,23.6532,VALID,18,VALID,0,
2009-02-27, 00:04:04,VALID,1008.52,VALID,0,VALID,91.7149,VALID,0,VALID,23.6745,VALID,18,VALID,0,
2009-02-27, 00:05:04,VALID,1008.5,VALID,0,VALID,91.7073,VALID,0,VALID,23.6745,VALID,18,VALID,0,
2009-02-27, 00:06:04,VALID,1008.49,VALID,0,VALID,91.7378,VALID,0,VALID,23.6745,VALID,18,VALID,0,
2009-02-27, 00:07:04,VALID,1008.46,VALID,0,VALID,91.7149,VALID,0,VALID,23.694,VALID,18,VALID,0,
2009-02-27, 00:08:04,VALID,1008.45,VALID,0,VALID,91.6616,VALID,0,VALID,23.6532,VALID,18,VALID,0,
2009-02-27, 00:09:04,VALID,1008.43,VALID,0,VALID,91.6616,VALID,0,VALID,23.694,VALID,18,VALID,0,
2009-02-27, 00:10:04,VALID,1008.45,VALID,0,VALID,91.6539,VALID,0,VALID,23.694,VALID,18,VALID,0,
2009-02-27, 00:11:04,VALID,1008.43,VALID,0,VALID,91.6158,VALID,0,VALID,23.694,VALID,18,VALID,0,
2009-02-27, 00:12:04,VALID,1008.43,VALID,0,VALID,91.5777,VALID,0.105969,VALID,23.6727,VALID,18,VALID,0,
2009-02-27, 00:13:04,VALID,1008.42,VALID,0,VALID,91.5548,VALID,0,VALID,23.694,VALID,18,VALID,0,
2009-02-27, 00:14:04,VALID,1008.38,VALID,0,VALID,91.5395,VALID,0,VALID,23.694,VALID,18,VALID,0,
2009-02-27, 00:15:04,VALID,1008.35,VALID,0,VALID,91.5014,VALID,0,VALID,23.6745,VALID,18,VALID,0,
2009-02-27, 00:16:04,VALID,1008.33,VALID,0,VALID,91.4785,VALID,0,VALID,23.6727,VALID,18,VALID,0,
2009-02-27, 00:17:04,VALID,1008.32,VALID,0,VALID,91.4328,VALID,0,VALID,23.655,VALID,18,VALID,0,
2009-02-27, 00:18:04,VALID,1008.3,VALID,0,VALID,91.4709,VALID,0,VALID,23.655,VALID,18,VALID,0,
2009-02-27, 00:19:04,VALID,1008.3,VALID,0,VALID,91.5472,VALID,0,VALID,23.6161,VALID,18,VALID,0,
2009-02-27, 00:20:04,VALID,1008.29,VALID,0,VALID,91.6387,VALID,0,VALID,23.6161,VALID,18,VALID,0,
2009-02-27, 00:21:04,VALID,1008.29,VALID,0,VALID,91.6997,VALID,0,VALID,23.6161,VALID,18,VALID,0,
2009-02-27, 00:22:04,VALID,1008.26,VALID,0,VALID,91.7912,VALID,0,VALID,23.6161,VALID,18,VALID,0,
2009-02-27, 00:23:04,VALID,1008.28,VALID,0,VALID,91.8293,VALID,0,VALID,23.6161,VALID,18,VALID,0,
2009-02-27, 00:24:04,VALID,1008.29,VALID,0,VALID,91.8598,VALID,0,VALID,23.6161,VALID,18,VALID,0,
2009-02-27, 00:25:04,VALID,1008.31,VALID,0,VALID,91.898,VALID,0,VALID,23.6161,VALID,18,VALID,0,
2009-02-27, 00:26:04,VALID,1008.3,VALID,0,VALID,91.898,VALID,0,VALID,23.5753,VALID,18,VALID,0,
2009-02-27, 00:27:04,VALID,1008.3,VALID,0,VALID,91.9056,VALID,0,VALID,23.5966,VALID,18,VALID,0,
2009-02-27, 00:28:04,VALID,1008.27,VALID,0,VALID,91.9361,VALID,0,VALID,23.5753,VALID,19,VALID,0,
2009-02-27, 00:29:04,VALID,1008.27,VALID,0,VALID,91.9742,VALID,0,VALID,23.5966,VALID,19,VALID,0,
2009-02-27, 00:30:04,VALID,1008.27,VALID,0,VALID,91.9971,VALID,0,VALID,23.5966,VALID,19,VALID,0,
2009-02-27, 00:31:04,VALID,1008.28,VALID,0,VALID,91.9971,VALID,0,VALID,23.5753,VALID,18,VALID,0,
2009-02-27, 00:32:04,VALID,1008.29,VALID,0,VALID,92.02,VALID,0,VALID,23.5948,VALID,18,VALID,0,
2009-02-27, 00:33:04,VALID,1008.28,VALID,0,VALID,92.0505,VALID,0,VALID,23.6143,VALID,18,VALID,0,
2009-02-27, 00:34:04,VALID,1008.26,VALID,0,VALID,92.0886,VALID,0,VALID,23.655,VALID,18,VALID,0,
2009-02-27, 00:35:04,VALID,1008.29,VALID,0,VALID,92.0581,VALID,0,VALID,23.655,VALID,18,VALID,0,
2009-02-27, 00:36:04,VALID,1008.3,VALID,0,VALID,92.0733,VALID,0,VALID,23.6532,VALID,18,VALID,0,
2009-02-27, 00:37:04,VALID,1008.28,VALID,0,VALID,92.0505,VALID,0,VALID,23.6745,VALID,18,VALID,0,
2009-02-27, 00:38:04,VALID,1008.27,VALID,0,VALID,91.9895,VALID,0,VALID,23.6745,VALID,19,VALID,0,
2009-02-27, 00:39:04,VALID,1008.26,VALID,0,VALID,91.9208,VALID,0,VALID,23.6745,VALID,19,VALID,0,
2009-02-27, 00:40:04,VALID,1008.23,VALID,0,VALID,91.8446,VALID,0,VALID,23.655,VALID,19,VALID,0,
2009-02-27, 00:41:04,VALID,1008.23,VALID,0,VALID,91.7683,VALID,0,VALID,23.655,VALID,23,VALID,0,
2009-02-27, 00:42:04,VALID,1008.23,VALID,0,VALID,91.7302,VALID,0,VALID,23.6356,VALID,29,VALID,0,
2009-02-27, 00:43:04,VALID,1008.2,VALID,0,VALID,91.7378,VALID,0,VALID,23.6143,VALID,29,VALID,0,
2009-02-27, 00:44:04,VALID,1008.19,VALID,0,VALID,91.7912,VALID,0,VALID,23.6143,VALID,29,VALID,0,
2009-02-27, 00:45:04,VALID,1008.17,VALID,0,VALID,91.8217,VALID,0,VALID,23.655,VALID,29,VALID,0,
2009-02-27, 00:46:04,VALID,1008.17,VALID,0,VALID,91.8293,VALID,0,VALID,23.6745,VALID,29,VALID,0,
2009-02-27, 00:47:04,VALID,1008.17,VALID,0,VALID,91.8598,VALID,0,VALID,23.6532,VALID,29,VALID,0,
2009-02-27, 00:48:04,VALID,1008.14,VALID,0,VALID,91.8675,VALID,0,VALID,23.6745,VALID,29,VALID,0,
2009-02-27, 00:49:04,VALID,1008.18,VALID,0,VALID,91.8751,VALID,0,VALID,23.6727,VALID,29,VALID,0,
2009-02-27, 00:50:04,VALID,1008.17,VALID,0,VALID,91.8446,VALID,0,VALID,23.694,VALID,29,VALID,0,
2009-02-27, 00:51:04,VALID,1008.18,VALID,0,VALID,91.7912,VALID,0,VALID,23.6745,VALID,29,VALID,0,
2009-02-27, 00:52:04,VALID,1008.2,VALID,0,VALID,91.7988,VALID,0,VALID,23.6745,VALID,29,VALID,0,
2009-02-27, 00:53:04,VALID,1008.19,VALID,0,VALID,91.8064,VALID,0,VALID,23.6745,VALID,29,VALID,0,
2009-02-27, 00:54:04,VALID,1008.18,VALID,0,VALID,91.8827,VALID,0,VALID,23.6745,VALID,29,VALID,0,
2009-02-27, 00:55:04,VALID,1008.18,VALID,0,VALID,91.9056,VALID,0,VALID,23.6532,VALID,29,VALID,0,
2009-02-27, 00:56:04,VALID,1008.14,VALID,0,VALID,91.8827,VALID,0,VALID,23.6745,VALID,29,VALID,0,
2009-02-27, 00:57:04,VALID,1008.12,VALID,0,VALID,91.898,VALID,0,VALID,23.6745,VALID,29,VALID,0,
2009-02-27, 00:58:04,VALID,1008.12,VALID,0,VALID,91.8827,VALID,0,VALID,23.6745,VALID,29,VALID,0,
2009-02-27, 00:59:04,VALID,1008.14,VALID,0,VALID,91.8903,VALID,0,VALID,23.6532,VALID,29,VALID,0,
2009-02-27, 01:00:04,VALID,1008.12,VALID,0,VALID,91.8827,VALID,0,VALID,23.6745,VALID,29,VALID,0,
2009-02-27, 01:01:04,VALID,1008.13,VALID,0,VALID,91.898,VALID,0,VALID,23.6532,VALID,29,VALID,0,
2009-02-27, 01:02:04,VALID,1008.12,VALID,0,VALID,91.8598,VALID,0,VALID,23.6338,VALID,29,VALID,0,
2009-02-27, 01:03:04,VALID,1008.11,VALID,0,VALID,91.8598,VALID,0,VALID,23.6338,VALID,29,VALID,0,
2009-02-27, 01:04:04,VALID,1008.13,VALID,0,VALID,91.8522,VALID,0,VALID,23.6143,VALID,29,VALID,0,
2009-02-27, 01:05:04,VALID,1008.09,VALID,0,VALID,91.8598,VALID,0,VALID,23.6161,VALID,29,VALID,0,
2009-02-27, 01:06:04,VALID,1008.09,VALID,0,VALID,91.8903,VALID,0,VALID,23.5948,VALID,29,VALID,0,
2009-02-27, 01:07:05,VALID,1008.07,VALID,0,VALID,91.9361,VALID,0,VALID,23.5948,VALID,29,VALID,0,
2009-02-27, 01:08:05,VALID,1008.08,VALID,0,VALID,91.9895,VALID,0,VALID,23.6356,VALID,29,VALID,0,
2009-02-27, 01:09:05,VALID,1008.05,VALID,0,VALID,92.0352,VALID,0,VALID,23.6143,VALID,29,VALID,0,
2009-02-27, 01:10:05,VALID,1008.01,VALID,0,VALID,92.0733,VALID,0,VALID,23.6356,VALID,29,VALID,0,
2009-02-27, 01:11:05,VALID,1007.99,VALID,0,VALID,92.1267,VALID,0,VALID,23.6143,VALID,29,VALID,0,
2009-02-27, 01:12:05,VALID,1008.01,VALID,0,VALID,92.1725,VALID,0,VALID,23.6143,VALID,29,VALID,0,
2009-02-27, 01:13:05,VALID,1007.99,VALID,0,VALID,92.2106,VALID,0,VALID,23.6338,VALID,29,VALID,0,
2009-02-27, 01:14:05,VALID,1007.99,VALID,0,VALID,92.203,VALID,0,VALID,23.6143,VALID,94,VALID,0,
2009-02-27, 01:15:05,VALID,1007.97,VALID,0,VALID,92.203,VALID,0,VALID,23.6161,VALID,101,VALID,0,
2009-02-27, 01:16:05,VALID,1007.98,VALID,0,VALID,92.2335,VALID,0,VALID,23.5948,VALID,160,VALID,0,
2009-02-27, 01:17:05,VALID,1007.95,VALID,0,VALID,92.2411,VALID,0,VALID,23.6161,VALID,160,VALID,0,
2009-02-27, 01:18:05,VALID,1007.94,VALID,0,VALID,92.2487,VALID,0,VALID,23.6161,VALID,160,VALID,0,
2009-02-27, 01:19:05,VALID,1007.92,VALID,0,VALID,92.2792,VALID,0,VALID,23.5753,VALID,160,VALID,0,
2009-02-27, 01:20:05,VALID,1007.89,VALID,0,VALID,92.2945,VALID,0,VALID,23.5753,VALID,160,VALID,0,
2009-02-27, 01:21:05,VALID,1007.89,VALID,0,VALID,92.325,VALID,0,VALID,23.5753,VALID,160,VALID,0,
2009-02-27, 01:22:05,VALID,1007.87,VALID,0,VALID,92.3555,VALID,0,VALID,23.5558,VALID,160,VALID,0,
2009-02-27, 01:23:05,VALID,1007.88,VALID,0,VALID,92.4013,VALID,0,VALID,23.5753,VALID,160,VALID,0,
2009-02-27, 01:24:05,VALID,1007.84,VALID,0,VALID,92.447,VALID,0,VALID,23.5558,VALID,160,VALID,0,
2009-02-27, 01:25:05,VALID,1007.83,VALID,0,VALID,92.4623,VALID,0,VALID,23.5576,VALID,160,VALID,0,
2009-02-27, 01:26:05,VALID,1007.81,VALID,0,VALID,92.4623,VALID,0,VALID,23.5363,VALID,160,VALID,0,
2009-02-27, 01:27:05,VALID,1007.78,VALID,0,VALID,92.4241,VALID,0,VALID,23.5363,VALID,160,VALID,0,
2009-02-27, 01:28:05,VALID,1007.77,VALID,0,VALID,92.386,VALID,0,VALID,23.5363,VALID,160,VALID,0,
2009-02-27, 01:29:05,VALID,1007.74,VALID,0,VALID,92.3555,VALID,0,VALID,23.5169,VALID,160,VALID,0,
2009-02-27, 01:30:05,VALID,1007.72,VALID,0,VALID,92.3326,VALID,0,VALID,23.5381,VALID,160,VALID,0,
2009-02-27, 01:31:05,VALID,1007.68,VALID,0,VALID,92.325,VALID,0,VALID,23.5186,VALID,160,VALID,0,
2009-02-27, 01:32:05,VALID,1007.66,VALID,0,VALID,92.3326,VALID,0,VALID,23.5381,VALID,160,VALID,0,
2009-02-27, 01:33:05,VALID,1007.66,VALID,0,VALID,92.325,VALID,0,VALID,23.5381,VALID,160,VALID,0,
2009-02-27, 01:34:05,VALID,1007.64,VALID,0,VALID,92.3479,VALID,0,VALID,23.5381,VALID,133,VALID,0.259375,
2009-02-27, 01:35:05,VALID,1007.63,VALID,0,VALID,92.3326,VALID,0,VALID,23.5381,VALID,133,VALID,0.438672,
2009-02-27, 01:36:05,VALID,1007.61,VALID,0,VALID,92.3097,VALID,0,VALID,23.5381,VALID,133,VALID,0.126563,
2009-02-27, 01:37:05,VALID,1007.62,VALID,0,VALID,92.3021,VALID,0,VALID,23.5576,VALID,133,VALID,0,
2009-02-27, 01:38:05,VALID,1007.6,VALID,0,VALID,92.3021,VALID,0,VALID,23.5771,VALID,133,VALID,0,
2009-02-27, 01:39:05,VALID,1007.6,VALID,0,VALID,92.2792,VALID,0,VALID,23.5558,VALID,133,VALID,0.121484,
2009-02-27, 01:40:05,VALID,1007.59,VALID,0,VALID,92.2564,VALID,0,VALID,23.5363,VALID,133,VALID,0.233203,
2009-02-27, 01:41:05,VALID,1007.59,VALID,0,VALID,92.2182,VALID,0,VALID,23.5558,VALID,133,VALID,0.392578,
2009-02-27, 01:42:05,VALID,1007.56,VALID,0,VALID,92.203,VALID,0,VALID,23.5771,VALID,133,VALID,0.354688,
2009-02-27, 01:43:05,VALID,1007.61,VALID,0,VALID,92.1649,VALID,0,VALID,23.5363,VALID,133,VALID,0.353516,
2009-02-27, 01:44:05,VALID,1007.62,VALID,0,VALID,92.1344,VALID,0,VALID,23.5169,VALID,133,VALID,0.283594,
2009-02-27, 01:45:05,VALID,1007.67,VALID,0,VALID,92.1039,VALID,0,VALID,23.5186,VALID,133,VALID,0,
2009-02-27, 01:46:05,VALID,1007.67,VALID,0,VALID,92.1267,VALID,0,VALID,23.4974,VALID,133,VALID,0,
2009-02-27, 01:47:05,VALID,1007.71,VALID,0,VALID,92.142,VALID,0,VALID,23.5381,VALID,133,VALID,0,
2009-02-27, 01:48:05,VALID,1007.72,VALID,0,VALID,92.1725,VALID,0,VALID,23.5169,VALID,133,VALID,0,
2009-02-27, 01:49:05,VALID,1007.72,VALID,0,VALID,92.1649,VALID,0,VALID,23.5186,VALID,133,VALID,0,
2009-02-27, 01:50:05,VALID,1007.73,VALID,0,VALID,92.1649,VALID,0,VALID,23.5381,VALID,133,VALID,0,
2009-02-27, 01:51:05,VALID,1007.75,VALID,0,VALID,92.1801,VALID,0,VALID,23.5363,VALID,133,VALID,0,
2009-02-27, 01:52:05,VALID,1007.74,VALID,0,VALID,92.1954,VALID,0,VALID,23.5576,VALID,133,VALID,0,
2009-02-27, 01:53:05,VALID,1007.75,VALID,0,VALID,92.203,VALID,0,VALID,23.5576,VALID,133,VALID,0,
2009-02-27, 01:54:05,VALID,1007.74,VALID,0,VALID,92.1725,VALID,0,VALID,23.5363,VALID,133,VALID,0,
2009-02-27, 01:55:05,VALID,1007.73,VALID,0,VALID,92.1572,VALID,0,VALID,23.5363,VALID,133,VALID,0,
2009-02-27, 01:56:05,VALID,1007.74,VALID,0,VALID,92.1344,VALID,0,VALID,23.5558,VALID,133,VALID,0,
2009-02-27, 01:57:05,VALID,1007.72,VALID,0,VALID,92.1496,VALID,0,VALID,23.5558,VALID,133,VALID,0,
2009-02-27, 01:58:05,VALID,1007.72,VALID,0,VALID,92.1191,VALID,0,VALID,23.5771,VALID,133,VALID,0,
2009-02-27, 01:59:05,VALID,1007.67,VALID,0,VALID,92.0886,VALID,0.105969,VALID,23.5771,VALID,133,VALID,0,
2009-02-27, 02:00:05,VALID,1007.65,VALID,0,VALID,92.0505,VALID,0,VALID,23.5558,VALID,133,VALID,0,
2009-02-27, 02:01:05,VALID,1007.62,VALID,0,VALID,92.0352,VALID,0,VALID,23.5363,VALID,133,VALID,0,
2009-02-27, 02:02:05,VALID,1007.59,VALID,0,VALID,92.0123,VALID,0.105969,VALID,23.5558,VALID,133,VALID,0,
2009-02-27, 02:03:05,VALID,1007.58,VALID,0,VALID,92.0123,VALID,0,VALID,23.5558,VALID,133,VALID,0,
2009-02-27, 02:04:05,VALID,1007.54,VALID,0,VALID,91.9742,VALID,0,VALID,23.5558,VALID,133,VALID,0,
2009-02-27, 02:05:05,VALID,1007.53,VALID,0,VALID,91.9513,VALID,0,VALID,23.5363,VALID,133,VALID,0,
2009-02-27, 02:06:05,VALID,1007.52,VALID,0,VALID,91.9361,VALID,0,VALID,23.5363,VALID,133,VALID,0,
2009-02-27, 02:07:05,VALID,1007.51,VALID,0,VALID,91.9666,VALID,0.105969,VALID,23.5363,VALID,133,VALID,0,
2009-02-27, 02:08:05,VALID,1007.52,VALID,0,VALID,91.9742,VALID,0.105969,VALID,23.5576,VALID,133,VALID,0,
2009-02-27, 02:09:05,VALID,1007.51,VALID,0,VALID,91.9895,VALID,0,VALID,23.5771,VALID,133,VALID,0,
2009-02-27, 02:10:05,VALID,1007.51,VALID,0,VALID,92.02,VALID,0,VALID,23.5363,VALID,131,VALID,0,
2009-02-27, 02:11:05,VALID,1007.51,VALID,0,VALID,92.0352,VALID,0,VALID,23.5363,VALID,107,VALID,0,
2009-02-27, 02:12:05,VALID,1007.51,VALID,0,VALID,92.0047,VALID,0,VALID,23.5169,VALID,79,VALID,0,
2009-02-27, 02:13:05,VALID,1007.52,VALID,0,VALID,91.9818,VALID,0,VALID,23.4779,VALID,72,VALID,0,
2009-02-27, 02:14:05,VALID,1007.48,VALID,0,VALID,91.9895,VALID,0,VALID,23.4779,VALID,72,VALID,0,
2009-02-27, 02:15:05,VALID,1007.49,VALID,0,VALID,92.0352,VALID,0,VALID,23.4584,VALID,48,VALID,0,
2009-02-27, 02:16:05,VALID,1007.45,VALID,0,VALID,92.1039,VALID,0,VALID,23.4389,VALID,46,VALID,0,
2009-02-27, 02:17:05,VALID,1007.45,VALID,0,VALID,92.1344,VALID,0,VALID,23.4194,VALID,46,VALID,0,
2009-02-27, 02:18:05,VALID,1007.44,VALID,0,VALID,92.2106,VALID,0,VALID,23.4194,VALID,44,VALID,0,
2009-02-27, 02:19:05,VALID,1007.42,VALID,0,VALID,92.2792,VALID,0.105969,VALID,23.4,VALID,43,VALID,0,
2009-02-27, 02:20:05,VALID,1007.42,VALID,0,VALID,92.325,VALID,0,VALID,23.3805,VALID,43,VALID,0,
2009-02-27, 02:21:05,VALID,1007.42,VALID,0,VALID,92.3631,VALID,0,VALID,23.361,VALID,43,VALID,0,
2009-02-27, 02:22:05,VALID,1007.38,VALID,0,VALID,92.4089,VALID,0.105969,VALID,23.3415,VALID,43,VALID,0,
2009-02-27, 02:23:05,VALID,1007.34,VALID,0,VALID,92.447,VALID,0,VALID,23.322,VALID,43,VALID,0,
2009-02-27, 02:24:05,VALID,1007.31,VALID,0,VALID,92.4775,VALID,0.105969,VALID,23.3026,VALID,43,VALID,0,
2009-02-27, 02:25:05,VALID,1007.28,VALID,0,VALID,92.5156,VALID,0,VALID,23.3043,VALID,43,VALID,0,
2009-02-27, 02:26:05,VALID,1007.26,VALID,0,VALID,92.569,VALID,0,VALID,23.2831,VALID,43,VALID,0,
2009-02-27, 02:27:05,VALID,1007.23,VALID,0,VALID,92.5995,VALID,0.105969,VALID,23.2441,VALID,43,VALID,0,
2009-02-27, 02:28:05,VALID,1007.22,VALID,0,VALID,92.6605,VALID,0,VALID,23.2441,VALID,43,VALID,0,
2009-02-27, 02:29:05,VALID,1007.23,VALID,0,VALID,92.7292,VALID,0,VALID,23.2636,VALID,47,VALID,0,
2009-02-27, 02:30:05,VALID,1007.23,VALID,0,VALID,92.7902,VALID,0,VALID,23.2636,VALID,58,VALID,0,
2009-02-27, 02:31:05,VALID,1007.22,VALID,0,VALID,92.8283,VALID,0,VALID,23.2848,VALID,62,VALID,0,
2009-02-27, 02:32:05,VALID,1007.22,VALID,0,VALID,92.8436,VALID,0,VALID,23.2654,VALID,68,VALID,0,
2009-02-27, 02:33:05,VALID,1007.25,VALID,0,VALID,92.8741,VALID,0,VALID,23.2441,VALID,68,VALID,0,
2009-02-27, 02:34:05,VALID,1007.2,VALID,0,VALID,92.8741,VALID,0.105969,VALID,23.2441,VALID,83,VALID,0.833203,
2009-02-27, 02:35:05,VALID,1007.22,VALID,0,VALID,92.9122,VALID,0,VALID,23.2441,VALID,71,VALID,0.638672,
2009-02-27, 02:36:05,VALID,1007.2,VALID,0,VALID,92.8969,VALID,0.105969,VALID,23.2441,VALID,75,VALID,0.53125,
2009-02-27, 02:37:05,VALID,1007.2,VALID,0,VALID,92.9198,VALID,0,VALID,23.2441,VALID,73,VALID,0.564844,
2009-02-27, 02:38:05,VALID,1007.21,VALID,0,VALID,92.9046,VALID,0,VALID,23.2441,VALID,66,VALID,0.471875,
2009-02-27, 02:39:05,VALID,1007.2,VALID,0,VALID,92.8969,VALID,0,VALID,23.2246,VALID,66,VALID,0,
2009-02-27, 02:40:05,VALID,1007.22,VALID,0,VALID,92.8969,VALID,0.105969,VALID,23.2246,VALID,70,VALID,0.813281,
2009-02-27, 02:41:05,VALID,1007.23,VALID,0,VALID,92.9122,VALID,0,VALID,23.2246,VALID,80,VALID,1.01328,
2009-02-27, 02:42:05,VALID,1007.23,VALID,0,VALID,92.9198,VALID,0,VALID,23.2264,VALID,77,VALID,0.966016,
2009-02-27, 02:43:05,VALID,1007.23,VALID,0,VALID,92.9503,VALID,0,VALID,23.2069,VALID,77,VALID,0.725391,
2009-02-27, 02:44:05,VALID,1007.24,VALID,0,VALID,92.9732,VALID,0,VALID,23.1662,VALID,83,VALID,0.851953,
2009-02-27, 02:45:05,VALID,1007.27,VALID,0,VALID,92.9884,VALID,0.105969,VALID,23.1857,VALID,83,VALID,0.884375,
2009-02-27, 02:46:05,VALID,1007.23,VALID,0,VALID,93.0342,VALID,0,VALID,23.1467,VALID,78,VALID,0.945313,
2009-02-27, 02:47:05,VALID,1007.23,VALID,0,VALID,93.0647,VALID,0.105969,VALID,23.1272,VALID,76,VALID,0.862891,
2009-02-27, 02:48:05,VALID,1007.22,VALID,0,VALID,93.0723,VALID,0,VALID,23.1467,VALID,83,VALID,1.02773,
2009-02-27, 02:49:05,VALID,1007.23,VALID,0,VALID,93.1105,VALID,0.105969,VALID,23.1272,VALID,81,VALID,0.896484,
2009-02-27, 02:50:05,VALID,1007.17,VALID,0,VALID,93.1257,VALID,0,VALID,23.1272,VALID,78,VALID,0.925781,
2009-02-27, 02:51:05,VALID,1007.17,VALID,0,VALID,93.1638,VALID,0.105969,VALID,23.1272,VALID,94,VALID,0.697656,
2009-02-27, 02:52:05,VALID,1007.16,VALID,0,VALID,93.1715,VALID,0,VALID,23.0883,VALID,80,VALID,0.639453,
2009-02-27, 02:53:05,VALID,1007.14,VALID,0,VALID,93.2096,VALID,0,VALID,23.1095,VALID,85,VALID,0.598828,
2009-02-27, 02:54:05,VALID,1007.13,VALID,0,VALID,93.202,VALID,0.105969,VALID,23.0883,VALID,67,VALID,0.702734,
2009-02-27, 02:55:05,VALID,1007.1,VALID,0,VALID,93.2401,VALID,0,VALID,23.0688,VALID,100,VALID,0.557813,
2009-02-27, 02:56:05,VALID,1007.11,VALID,0,VALID,93.2172,VALID,0,VALID,23.0688,VALID,102,VALID,0.516016,
2009-02-27, 02:57:05,VALID,1007.13,VALID,0,VALID,93.2477,VALID,0.105969,VALID,23.0688,VALID,114,VALID,0.497656,
2009-02-27, 02:58:05,VALID,1007.13,VALID,0,VALID,93.2477,VALID,0,VALID,23.0688,VALID,102,VALID,0.627344,
2009-02-27, 02:59:05,VALID,1007.11,VALID,0,VALID,93.2477,VALID,0,VALID,23.0688,VALID,92,VALID,0.539453,
2009-02-27, 03:00:05,VALID,1007.14,VALID,0,VALID,93.2477,VALID,0,VALID,23.0688,VALID,62,VALID,0.555469,
2009-02-27, 03:01:05,VALID,1007.14,VALID,0,VALID,93.2477,VALID,0.105969,VALID,23.0688,VALID,58,VALID,0.0289063,
2009-02-27, 03:02:05,VALID,1007.16,VALID,0,VALID,93.2477,VALID,0,VALID,23.0493,VALID,58,VALID,0,
2009-02-27, 03:03:05,VALID,1007.16,VALID,0,VALID,93.2325,VALID,0,VALID,23.0493,VALID,70,VALID,0.647656,
2009-02-27, 03:04:05,VALID,1007.12,VALID,0,VALID,93.2248,VALID,0,VALID,23.0493,VALID,61,VALID,0.643359,
2009-02-27, 03:05:05,VALID,1007.17,VALID,0,VALID,93.2172,VALID,0,VALID,23.0298,VALID,77,VALID,0.553516,
2009-02-27, 03:06:05,VALID,1007.17,VALID,0,VALID,93.2172,VALID,0,VALID,23.0511,VALID,74,VALID,0.972266,
2009-02-27, 03:07:05,VALID,1007.15,VALID,0,VALID,93.2172,VALID,0,VALID,23.0103,VALID,86,VALID,0.73125,
2009-02-27, 03:08:05,VALID,1007.17,VALID,0,VALID,93.2553,VALID,0,VALID,23.0316,VALID,86,VALID,0.623047,
2009-02-27, 03:09:05,VALID,1007.18,VALID,0,VALID,93.2553,VALID,0.105969,VALID,23.0103,VALID,82,VALID,0.666406,
2009-02-27, 03:10:05,VALID,1007.17,VALID,0,VALID,93.2553,VALID,0,VALID,22.9926,VALID,65,VALID,0,
2009-02-27, 03:11:05,VALID,1007.15,VALID,0,VALID,93.2553,VALID,0,VALID,22.9714,VALID,68,VALID,0.553906,
2009-02-27, 03:12:05,VALID,1007.15,VALID,0,VALID,93.2935,VALID,0,VALID,22.9714,VALID,69,VALID,0.0140625,
2009-02-27, 03:13:05,VALID,1007.13,VALID,0,VALID,93.2935,VALID,0,VALID,22.9519,VALID,62,VALID,0.673828,
2009-02-27, 03:14:05,VALID,1007.17,VALID,0,VALID,93.3316,VALID,0,VALID,22.9714,VALID,73,VALID,0.442969,
2009-02-27, 03:15:05,VALID,1007.19,VALID,0,VALID,93.3468,VALID,0,VALID,22.9731,VALID,65,VALID,0,
2009-02-27, 03:16:05,VALID,1007.18,VALID,0,VALID,93.3468,VALID,0,VALID,22.9519,VALID,51,VALID,0,
2009-02-27, 03:17:05,VALID,1007.2,VALID,0,VALID,93.3773,VALID,0,VALID,22.9324,VALID,51,VALID,0,
2009-02-27, 03:18:05,VALID,1007.21,VALID,0,VALID,93.385,VALID,0,VALID,22.9324,VALID,51,VALID,0,
2009-02-27, 03:19:05,VALID,1007.2,VALID,0,VALID,93.4002,VALID,0.105969,VALID,22.9129,VALID,51,VALID,0,
2009-02-27, 03:20:05,VALID,1007.24,VALID,0,VALID,93.4155,VALID,0.105969,VALID,22.9324,VALID,51,VALID,0,
2009-02-27, 03:21:05,VALID,1007.25,VALID,0,VALID,93.4307,VALID,0,VALID,22.9129,VALID,51,VALID,0,
2009-02-27, 03:22:05,VALID,1007.25,VALID,0,VALID,93.4536,VALID,0.105969,VALID,22.9129,VALID,51,VALID,0,
2009-02-27, 03:23:05,VALID,1007.3,VALID,0,VALID,93.4612,VALID,0,VALID,22.9324,VALID,51,VALID,0,
2009-02-27, 03:24:05,VALID,1007.29,VALID,0,VALID,93.4765,VALID,0.105969,VALID,22.9324,VALID,111,VALID,0.451562,
2009-02-27, 03:25:05,VALID,1007.3,VALID,0,VALID,93.4917,VALID,0,VALID,22.9129,VALID,111,VALID,0.319141,
2009-02-27, 03:26:05,VALID,1007.32,VALID,0,VALID,93.4841,VALID,0,VALID,22.9129,VALID,100,VALID,0.807813,
2009-02-27, 03:27:05,VALID,1007.3,VALID,0,VALID,93.5146,VALID,0,VALID,22.8935,VALID,104,VALID,0.652734,
2009-02-27, 03:28:05,VALID,1007.33,VALID,0,VALID,93.5375,VALID,0,VALID,22.9129,VALID,99,VALID,0.836328,
2009-02-27, 03:29:05,VALID,1007.34,VALID,0,VALID,93.5527,VALID,0,VALID,22.9147,VALID,91,VALID,0.741406,
2009-02-27, 03:30:05,VALID,1007.33,VALID,0,VALID,93.5909,VALID,0,VALID,22.8935,VALID,98,VALID,0.600781,
2009-02-27, 03:31:05,VALID,1007.32,VALID,0,VALID,93.6061,VALID,0,VALID,22.9129,VALID,99,VALID,0.465625,
2009-02-27, 03:32:05,VALID,1007.33,VALID,0,VALID,93.6061,VALID,0,VALID,22.874,VALID,101,VALID,0.291406,
2009-02-27, 03:33:05,VALID,1007.34,VALID,0,VALID,93.6214,VALID,0,VALID,22.8952,VALID,137,VALID,0.313672,
2009-02-27, 03:34:05,VALID,1007.36,VALID,0,VALID,93.6137,VALID,0,VALID,22.8545,VALID,165,VALID,0.551562,
2009-02-27, 03:35:05,VALID,1007.39,VALID,0,VALID,93.629,VALID,0,VALID,22.835,VALID,168,VALID,0.819531,
2009-02-27, 03:36:05,VALID,1007.37,VALID,0,VALID,93.629,VALID,0,VALID,22.835,VALID,173,VALID,0.630078,
2009-02-27, 03:37:05,VALID,1007.39,VALID,0,VALID,93.629,VALID,0,VALID,22.8368,VALID,161,VALID,0.748047,
2009-02-27, 03:38:05,VALID,1007.39,VALID,0,VALID,93.6366,VALID,0,VALID,22.7961,VALID,157,VALID,0.883203,
2009-02-27, 03:39:05,VALID,1007.41,VALID,0,VALID,93.6595,VALID,0,VALID,22.7766,VALID,126,VALID,0.756641,
2009-02-27, 03:40:05,VALID,1007.43,VALID,0,VALID,93.6748,VALID,0,VALID,22.7978,VALID,128,VALID,0.685547,
2009-02-27, 03:41:05,VALID,1007.44,VALID,0,VALID,93.6824,VALID,0,VALID,22.7766,VALID,128,VALID,0.657812,
2009-02-27, 03:42:05,VALID,1007.44,VALID,0,VALID,93.7205,VALID,0,VALID,22.7571,VALID,126,VALID,0.524219,
2009-02-27, 03:43:05,VALID,1007.43,VALID,0,VALID,93.7358,VALID,0,VALID,22.7783,VALID,126,VALID,0.449219,
2009-02-27, 03:44:05,VALID,1007.44,VALID,0,VALID,93.7586,VALID,0,VALID,22.7783,VALID,114,VALID,0.363672,
2009-02-27, 03:45:05,VALID,1007.42,VALID,0,VALID,93.7815,VALID,0,VALID,22.7978,VALID,110,VALID,0.460156,
2009-02-27, 03:46:05,VALID,1007.42,VALID,0,VALID,93.812,VALID,0,VALID,22.7783,VALID,104,VALID,0.513281,
2009-02-27, 03:47:05,VALID,1007.42,VALID,0,VALID,93.812,VALID,0,VALID,22.7783,VALID,98,VALID,0.511328,
2009-02-27, 03:48:04,VALID,1007.41,VALID,0,VALID,93.8273,VALID,0,VALID,22.7571,VALID,66,VALID,0.423828,
2009-02-27, 03:49:04,VALID,1007.4,VALID,0,VALID,93.8502,VALID,0,VALID,22.7571,VALID,84,VALID,0.926172,
2009-02-27, 03:50:04,VALID,1007.41,VALID,0,VALID,93.873,VALID,0,VALID,22.7783,VALID,84,VALID,0.550391,
2009-02-27, 03:51:04,VALID,1007.4,VALID,0,VALID,93.8654,VALID,0,VALID,22.7588,VALID,83,VALID,0.692578,
2009-02-27, 03:52:04,VALID,1007.42,VALID,0,VALID,93.8807,VALID,0,VALID,22.7588,VALID,90,VALID,0.663281,
2009-02-27, 03:53:04,VALID,1007.4,VALID,0,VALID,93.873,VALID,0,VALID,22.7588,VALID,92,VALID,0.589063,
2009-02-27, 03:54:04,VALID,1007.41,VALID,0,VALID,93.8959,VALID,0,VALID,22.7376,VALID,79,VALID,0.682813,